Clawson, MI

10:47 PM EST on December 07, 2016 (GMT -0500)
Troy

Weather History for KVLL - October, 2011

Change the Weather History Date:

Tuesday, October 4, 2011

  Actual Average (KDET) Record (KDET)
Temperature  
Mean Temperature 60 °F -  
Max Temperature 71 °F 65 °F 89 °F (1951)
Min Temperature 50 °F 49 °F 35 °F (1965)
Degree Days  
Heating Degree Days 4    
Growing Degree Days 10 (Base 50)    
Moisture  
Dew Point 41 °F    
Average Humidity 52    
Maximum Humidity 76    
Minimum Humidity 29    
Precipitation  
Precipitation 0.00 in - - ()
Sea Level Pressure  
Sea Level Pressure 30.26 in    
Wind  
Wind Speed 5 mph (NW)    
Max Wind Speed 9 mph    
Max Gust Speed -    
Visibility 10 miles    
Events      
Averages and records for this station are not official NWS values.
T = Trace of Precipitation, MM = Missing Value Source: NWS Daily Summary

Daily Weather History Graph

Daily Weather History Graph

Search for Another Location

Airport or City:

Trip Planner

Search our weather history database for the weather conditions in past years. The results will help you decide how hot, cold, wet, or windy it might be!

Date:

Astronomy

Oct. 04, 2011 Rise Set
Actual Time 7:32 AM EDT 7:09 PM EDT
Civil Twilight 7:04 AM EDT 7:37 PM EDT
Nautical Twilight 6:32 AM EDT 8:10 PM EDT
Astronomical Twilight 5:59 AM EDT 8:42 PM EDT
Moon 3:18 PM EDT (10/4) 12:06 AM EDT (10/4)
Length of Visible Light 12h 32m
Length of Day
11h 36m
First Quarter, 56% of the Moon is Illuminated
Oct 4
First Quarter
Oct 11
Full
Oct 19
Last Quarter
Oct 26
New
Nov 2
First Quarter

Hourly Weather History & Observations

Time (EDT) Temp. Dew Point Humidity Pressure Visibility Wind Dir Wind Speed Gust Speed Precip Events Conditions
12:16 AM 55.4 °F 42.8 °F 63% 30.23 in 10.0 mi NNW 5.8 mph - N/A   Overcast
12:36 AM 55.4 °F 42.8 °F 63% 30.22 in 10.0 mi NNW 3.5 mph - N/A   Scattered Clouds
12:56 AM 55.4 °F 42.8 °F 63% 30.22 in 10.0 mi NW 3.5 mph - N/A   Clear
1:16 AM 53.6 °F 42.8 °F 67% 30.22 in 10.0 mi NNW 3.5 mph - N/A   Clear
1:37 AM 53.6 °F 42.8 °F 67% 30.22 in 10.0 mi NW 4.6 mph - N/A   Clear
1:56 AM 53.6 °F 42.8 °F 67% 30.23 in 10.0 mi NW 5.8 mph - N/A   Clear
2:16 AM 53.6 °F 42.8 °F 67% 30.23 in 10.0 mi NNW 4.6 mph - N/A   Clear
2:37 AM 51.8 °F 42.8 °F 71% 30.23 in 10.0 mi Calm Calm - N/A   Scattered Clouds
2:56 AM 51.8 °F 42.8 °F 71% 30.23 in 10.0 mi Calm Calm - N/A   Scattered Clouds
3:16 AM 51.8 °F 42.8 °F 71% 30.23 in 10.0 mi NNW 3.5 mph - N/A   Clear
3:37 AM 51.8 °F 41.0 °F 67% 30.23 in 10.0 mi Calm Calm - N/A   Clear
4:16 AM 50.0 °F 42.8 °F 76% 30.23 in 10.0 mi Calm Calm - N/A   Clear
4:37 AM 50.0 °F 42.8 °F 76% 30.24 in 10.0 mi Calm Calm - N/A   Clear
4:56 AM 50.0 °F 42.8 °F 76% 30.24 in 10.0 mi Calm Calm - N/A   Clear
5:17 AM 50.0 °F 42.8 °F 76% 30.24 in 10.0 mi WNW 4.6 mph - N/A   Clear
5:37 AM 50.0 °F 42.8 °F 76% 30.24 in 10.0 mi NW 5.8 mph - N/A   Clear
5:56 AM 51.8 °F 42.8 °F 71% 30.24 in 10.0 mi WNW 5.8 mph - N/A   Clear
6:17 AM 50.0 °F 41.0 °F 71% 30.25 in 10.0 mi NW 6.9 mph - N/A   Clear
6:36 AM 50.0 °F 41.0 °F 71% 30.25 in 10.0 mi NW 6.9 mph - N/A   Clear
6:56 AM 50.0 °F 41.0 °F 71% 30.25 in 10.0 mi NW 5.8 mph - N/A   Clear
7:17 AM 50.0 °F 41.0 °F 71% 30.25 in 10.0 mi WNW 6.9 mph - N/A   Clear
7:36 AM 50.0 °F 39.2 °F 66% 30.26 in 10.0 mi NW 6.9 mph - N/A   Clear
8:16 AM 51.8 °F 39.2 °F 62% 30.27 in 10.0 mi NW 4.6 mph - N/A   Clear
8:36 AM 51.8 °F 39.2 °F 62% 30.27 in 10.0 mi NW 6.9 mph - N/A   Clear
9:16 AM 53.6 °F 41.0 °F 62% 30.28 in 10.0 mi WNW 6.9 mph - N/A   Clear
9:36 AM 55.4 °F 41.0 °F 58% 30.29 in 10.0 mi WNW 9.2 mph - N/A   Clear
10:16 AM 60.8 °F 42.8 °F 52% 30.29 in 10.0 mi WNW 5.8 mph - N/A   Clear
10:37 AM 60.8 °F 41.0 °F 48% 30.30 in 10.0 mi NW 9.2 mph - N/A   Clear
11:16 AM 62.6 °F 41.0 °F 45% 30.30 in 10.0 mi WNW 8.1 mph - N/A   Clear
11:37 AM 64.4 °F 41.0 °F 42% 30.30 in 10.0 mi NW 8.1 mph - N/A   Clear
12:16 PM 68.0 °F 41.0 °F 37% 30.30 in 10.0 mi West 8.1 mph - N/A   Clear
12:36 PM 68.0 °F 39.2 °F 35% 30.30 in 10.0 mi NW 8.1 mph - N/A   Clear
12:56 PM 68.0 °F 39.2 °F 35% 30.30 in 10.0 mi NNW 8.1 mph - N/A   Clear
1:17 PM 68.0 °F 39.2 °F 35% 30.29 in 10.0 mi WNW 8.1 mph - N/A   Clear
1:36 PM 69.8 °F 39.2 °F 33% 30.29 in 10.0 mi WNW 9.2 mph - N/A   Clear
2:16 PM 69.8 °F 37.4 °F 31% 30.27 in 10.0 mi NW 4.6 mph - N/A   Clear
2:36 PM 69.8 °F 39.2 °F 33% 30.27 in 7.0 mi North 5.8 mph - N/A   Clear
2:57 PM 69.8 °F 37.4 °F 31% 30.27 in 10.0 mi NNW 8.1 mph - N/A   Clear
3:16 PM 69.8 °F 37.4 °F 31% 30.26 in 10.0 mi Calm Calm - N/A   Clear
3:36 PM 69.8 °F 37.4 °F 31% 30.26 in 10.0 mi West 5.8 mph - N/A   Clear
3:56 PM 71.6 °F 37.4 °F 29% 30.26 in 10.0 mi NW 4.6 mph - N/A   Clear
4:16 PM 71.6 °F 37.4 °F 29% 30.25 in 10.0 mi NW 6.9 mph - N/A   Clear
4:36 PM 71.6 °F 37.4 °F 29% 30.25 in 10.0 mi NW 3.5 mph - N/A   Clear
4:56 PM 71.6 °F 37.4 °F 29% 30.25 in 10.0 mi West 4.6 mph - N/A   Clear
5:17 PM 71.6 °F 37.4 °F 29% 30.25 in 10.0 mi WNW 6.9 mph - N/A   Clear
5:36 PM 69.8 °F 37.4 °F 31% 30.25 in 10.0 mi NW 4.6 mph - N/A   Clear
5:56 PM 69.8 °F 41.0 °F 35% 30.25 in 10.0 mi WNW 4.6 mph - N/A   Clear
6:17 PM 69.8 °F 41.0 °F 35% 30.25 in 10.0 mi West 5.8 mph - N/A   Clear
6:36 PM 69.8 °F 42.8 °F 38% 30.25 in 10.0 mi WNW 4.6 mph - N/A   Clear
6:56 PM 68.0 °F 42.8 °F 40% 30.25 in 10.0 mi WNW 3.5 mph - N/A   Clear
7:17 PM 68.0 °F 42.8 °F 40% 30.26 in 10.0 mi Calm Calm - N/A   Clear
7:36 PM 66.2 °F 44.6 °F 46% 30.26 in 10.0 mi Calm Calm - N/A   Clear
7:57 PM 62.6 °F 44.6 °F 52% 30.26 in 10.0 mi WNW 3.5 mph - N/A   Clear
8:16 PM 62.6 °F 46.4 °F 55% 30.26 in 10.0 mi Calm Calm - N/A   Clear
8:36 PM 60.8 °F 46.4 °F 59% 30.26 in 10.0 mi Calm Calm - N/A   Clear
8:57 PM 60.8 °F 46.4 °F 59% 30.26 in 10.0 mi West 3.5 mph - N/A   Clear
9:16 PM 59.0 °F 46.4 °F 63% 30.26 in 10.0 mi Calm Calm - N/A   Clear
9:36 PM 59.0 °F 46.4 °F 63% 30.26 in 10.0 mi Calm Calm - N/A   Clear
9:57 PM 55.4 °F 46.4 °F 72% 30.26 in 10.0 mi Calm Calm - N/A   Clear
10:36 PM 55.4 °F 46.4 °F 72% 30.26 in 10.0 mi Calm Calm - N/A   Clear
10:57 PM 55.4 °F 46.4 °F 72% 30.26 in 10.0 mi Calm Calm - N/A   Clear
11:16 PM 55.4 °F 46.4 °F 72% 30.26 in 10.0 mi West 3.5 mph - N/A   Clear
11:36 PM 55.4 °F 46.4 °F 72% 30.26 in 10.0 mi Calm Calm - N/A   Clear
11:57 PM 55.4 °F 46.4 °F 72% 30.26 in 10.0 mi Calm Calm - N/A   Clear